C/2005 YW (LINEAR)

Epoch 2006 Dec. 11.0 TT = JDT 2454080.5  

T 2006 Dec. 7.85000 TT                                  Nakano

q   1.9930104            (2000.0)            P               Q

z  +0.0052537      Peri.  234.63442     -0.83284113     +0.06259949

 +/-0.0000018      Node   302.21445     +0.35704726     -0.69847315

e   0.9895294      Incl.   40.54362     -0.42295733     -0.71289309

From 194 observations 2005 Dec. 21-2007 Apr. 14, mean residual 0".44.

   (1/a)org.= +0.005507, (1/a)fut.= +0.006833 (+/-0.000002), Q= 8.

Residuals in seconds of arc 

2005/                     061015 349  0.0   1.0-    070120 322  1.1-  0.9+  

051221 704  0.0   0.5+    061015 349  0.1-  1.3-    070202 834  0.0   0.3+  

051221 704  0.2-  0.8+    061016 809  0.2-  0.5-    070202 834  0.0   0.4+  

051221 704  0.4+  0.5+    061016 809  0.1-  0.5-    070202 834  0.1-  0.3+  

051222 704  0.1+  1.0+    061016 809  0.2-  0.6-    070203 834  0.2+  0.1+  

051222 704  0.8+  0.2-    061016 809  0.3-  0.6-    070203 834  0.1+  0.1+  

051222 704  0.3+  0.7+    061016 809  0.1-  0.5-    070203 834  0.2+  0.2+  

051224 704  0.2-  0.8+    061016 809  0.2-  0.6-    070211 834  0.1-  0.1+  

051224 704  0.3+  0.7+    061016 809  0.3-  0.5-    070211 834  0.2-  0.0   

051224 704  0.6+  1.0+    061016 809  0.3-  0.6-    070211 834  0.4-  0.2-  

051224 704  0.8+  0.8+    061016 809  0.1-  0.6-    070211 834  0.4-  0.1+  

051225 673  0.0   0.5+    061016 809  0.3-  0.5-    070211 I77  0.3+  0.3+  

051225 673  0.0   0.4+    061016 809  0.1-  0.6-    070211 I77  0.5-  0.4+  

051225 673  0.1+  0.3+    061020 372  0.7-  0.1+    070211 I77  0.1+  0.2+  

051225 682  1.6-  1.6+    061025 349  0.6-  0.2-    070213 834  0.1-  0.1-  

051225 673  0.3+  0.4+    061025 349  0.5-  0.3-    070213 834  0.1+  0.0   

051225 682  0.3-  1.1+    061025 349  0.8-  0.2-    070214 E16  0.5-  0.5+  

051225 682  0.3-  0.4+    061027 204  0.2-  0.2-    070214 E16  0.0   0.9+  

051225 854  0.0   0.0     061027 204  0.5-  0.3+    070217 467  0.0   0.1-  

051225 854  0.6+  1.0+    061027 204  0.1+  0.1-    070217 467  0.1+  0.2-  

051225 854  0.1+  0.2-    061029 372  0.8-  1.1+    070217 467  0.1-  0.2+  

051225 143  0.0   0.2+    061031 349  0.6-  0.1+    070220 834  0.2+  0.2+  

051225 143  0.1-  0.4+    061031 349  0.5-  0.1+    070220 834  0.1-  0.3+  

051225 143  0.1-  0.6+    061031 349  0.5-  0.0     070220 834  0.2-  0.5+  

051226 118  0.1+  0.2-    061117 349  0.3-  0.7-    070226 467  0.1-  0.1+  

051226 118  0.3+  0.0     061117 349  0.5-  0.6-    070305 808  0.0   0.0   

051226 J77  1.0+  0.2+    061122 H06  0.8-  0.3+    070305 808  0.3+  0.3-  

051226 J77  0.4+  0.4+    061122 H06  0.4-  0.1+    070305 808  0.3+  0.1+  

051226 J77  0.4+  0.1+    061124 349  0.2-  0.1+    070305 808  0.2+  0.1+  

051226 734  0.2+  0.2+    061124 349  0.1-  0.3+    070309 467  0.4+  0.2+  

051226 734  0.6+  0.6+    061124 349  0.3-  0.2+    070309 467  0.0   0.5+  

051226 734  1.0+  0.2+    061130 372  1.8-  0.3+    070309 467  0.0   0.2+  

051226 J95  0.1-  0.0     061201 355  0.5-  0.4+    070320 I31  0.1+  1.5+  

051226 J95  0.2+  0.1+    061201 355  0.4-  0.0     070320 I31 (0.1-  2.1+) 

051227 J95  0.0   0.2+    061201 355  0.4-  0.2+    070320 I31 (2.3+  2.7+) 

051227 J95  0.2+  0.0     061201 355  0.3-  0.2+    070320 I31 (2.0+  2.6+) 

051227 734  0.3-  0.2-    061201 372  0.7-  0.1-    070320 I31  1.0+  1.9+  

051227 734  0.2+  0.2+    061201 349  0.3-  0.2+    070322 E03  0.6-  0.5+  

051227 734  0.2+  0.4-    061201 349  0.1-  0.2+    070322 E03  0.7-  0.3+  

051227 682  0.1-  0.4+    061201 349  0.2-  0.2+    070322 467  0.0   0.0   

051227 682  0.6-  1.5-    061209 844  0.3-  0.0     070322 467  0.0   0.1+  

051228 J95  0.3+  0.2+    061209 844  0.4-  0.0     070322 467  0.0   0.0   

051228 J95  0.5+  0.1-    061209 844  0.3-  0.1+    070323 415  0.1-  0.0   

051228 J95  0.2+  0.2-    061209 844  0.5-  0.1+    070323 415  0.0   0.2+  

051229 147  0.0   0.0     061209 844  0.3-  0.1+    070324 834  0.2-  0.2+  

051229 147  0.1+  0.4+    061217 349  0.5-  0.2+    070324 834  0.3-  0.1+  

2006/                     061217 349  0.4-  0.3+    070324 834  0.1+  0.5+  

060103 147  1.4-  0.7-    061217 349  0.3-  0.2+    070324 844  0.2-  0.2+  

060103 147  0.1+  0.4-    061218 415  0.5+  0.2-    070324 844  0.1-  0.2+  

060121 J95  0.1+  0.1+    061218 415  0.0   0.1-    070324 844  0.1-  0.2+  

060121 J95  0.4+  0.1+    061221 415  0.3+  0.4-    070324 844  0.2-  0.4+  

060121 J95  0.5+  0.3+    061221 415  0.2+  0.2-    070331 E12  0.4-  0.3+  

060306 147 (0.6+ 11.2+)   061222 349  0.1+  0.1-    070404 467  0.3+  0.2+  

060306 147 (0.3+  9.8+)   061222 349  0.1+  0.2-    070404 467  0.4+  0.2+  

060306 147 (1.3+  8.6+)   061222 349  0.1+  0.1+    070404 467  0.3+  0.3+  

060508 461  0.0   0.1+    2007/                     070405 467  0.2+  0.3+  

060508 461  0.2-  0.2+    070106 834  0.1+  0.1-    070405 467  0.3+  0.1+  

060508 461  0.2+  0.3-    070106 834  0.2-  0.4+    070405 467  0.2+  0.2+  

061011 204  0.5-  0.1-    070106 834  0.1+  0.0     070409 467  0.5+  0.2+  

061011 204  0.5-  0.1-    070109 834  0.2+  0.3+    070409 467  0.2+  0.1+  

061011 204  0.3-  0.2-    070109 834  0.1+  0.3-    070409 467  0.2+  0.2+  

061011 204  0.5-  0.2-    070113 834  0.3+  0.1-    070409 467  0.2+  0.3+  

061011 H06  0.2-  0.3+    070113 834  0.2+  0.2+    070413 834  0.2+  0.6+  

061011 H06 (2.0-  1.6+)   070113 834  0.4+  0.2+    070413 834  0.0   0.5+  

061012 235  0.1-  0.1+    070120 415  0.5+  0.1-    070413 834  0.2+  0.6+  

061012 235  0.1+  0.4-    070120 415  0.5+  0.1-    070414 834  0.0   0.7+  

061012 470  0.4-  1.1-    070120 322  0.9-  0.7+    070414 834  0.1+  0.8+  

061015 349  0.1-  1.2-    070120 322  0.4-  0.2+    070414 834  0.1-  0.8+  



NAKANO

         **** Don't distribute anyone except personal use only ****

                (C) Copyright 2007 OAA/ComputingSection

write mail from CFAD0::NAKANO on 2007-05-04 04:01:44(JST).



    C/2005 YW (LINEAR)

Epoch 2006 Dec. 11.0 TT = JDT 2454080.5  

T 2006 Dec. 7.85097 TT                                  Nakano

q   1.9930097            (2000.0)            P               Q

z  +0.0052650      Peri.  234.63484     -0.83283940     +0.06260461

 +/-0.0000076      Node   302.21434     +0.35704462     -0.69847512

e   0.9895069      Incl.   40.54375     -0.42296296     -0.71289071

From 100 observations 2005 Dec. 21-2006 Dec. 1, mean residual 0.45.

   (1/a)org.= +0.005519, (1/a)fut.= +0.006844 (+/-0.000008), Q= 7.



NAKANO

         **** Don't distribute anyone except personal use only ****

                (C) Copyright 2006 OAA/ComputingSection

write mail from CFAD0::NAKANO on 2006-12-06 04:14:05(JST).

 

◎C/2005 YWの軌道と予報位置です    [From YC 2535]



 12月に入ってからの観測が秦野の浅見敦夫氏より報告されました.氏の12月1日

のCCD全光度は14.1等でした(ほんとうか?).



以下は,CMESにあるYC2535から.2番目の軌道と位置予報は新しい.

-----

LINEAR彗星  C/2005 YW (LINEAR)

  山本速報2530でその発見を紹介したこの彗星は,明け方の低空にあるためか,

その後の追跡観測は多くない.しかし,彗星は,同号にある予報光度より1等級

明るく,12等級まで増光しているらしい(cf. YC 2530).

  OAA計算課では,2005年12月21日から2006年11月22日までに行なわれた90個の

観測から次の軌道を計算した.平均残差は0".46.上尾の門田健一氏(K. Kadota, 

Ageo)は,彗星のCCD全光度を10月25日に14.1等,31日に14.0等,11月17日に13.9

等と報告している.なお,彗星は,2007年1月には,南天へと動き,観測できな

くなる.



           Epoch = 2006 Dec. 11.0 TT  。

 T = 2006 Dec. 7.84990 TT    ω = 234.63436                (1/a)org.= +0.005510

 e =   0.9895247             Ω = 302.21435   (2000.0)     (1/a)fut.= +0.006835

 q =   1.9930163 AU          i =  40.54379                           ( Q = 7 )

-----



    C/2005 YW (LINEAR)

Epoch 2006 Dec. 11.0 TT = JDT 2454080.5  

T 2006 Dec. 7.85032 TT                                  Nakano

q   1.9930142            (2000.0)            P               Q

z  +0.0052598      Peri.  234.63454     -0.83283961     +0.06260045

 +/-0.0000079      Node   302.21435     +0.35704836     -0.69847311

e   0.9895172      Incl.   40.54377     -0.42295939     -0.71289305

From 94 observations 2005 Dec. 21-2006 Dec. 1, mean residual 0".45.

   (1/a)org.= +0.005513, (1/a)fut.= +0.006839 (+/-0.000008), Q= 7.



2006/2007    α  (2000) δ      △      r    Daily motion  Elong. Phase    m1   天文薄明開始時

 04h JST    h  m       。  ,        AU      AU      ,     。     。      。      等     h。    A 。 

Dec.  1   12 07.12  -29 24.3    2.312   1.994    41.0/140    59.1   25.1   12.3   +18.8  331.5

      2   12 09.15  -29 55.6    2.305   1.994    41.0/140    59.5   25.2   12.3   +18.6  332.3

      3   12 11.20  -30 26.9    2.298   1.994    41.0/140    59.8   25.3   12.3   +18.3  333.1

      4   12 13.25  -30 58.2    2.291   1.993    41.0/140    60.2   25.4   12.3   +18.1  333.9

      5   12 15.31  -31 29.5    2.284   1.993    40.9/140    60.5   25.5   12.3   +17.9  334.7

      6   12 17.38  -32 00.8    2.277   1.993    40.9/140    60.9   25.6   12.3   +17.6  335.4

      7   12 19.45  -32 32.1    2.271   1.993    40.9/140    61.2   25.7   12.3   +17.3  336.2

      8   12 21.54  -33 03.4    2.264   1.993    40.8/140    61.5   25.8   12.3   +17.1  336.9

      9   12 23.63  -33 34.7    2.258   1.993    40.8/140    61.9   25.8   12.3   +16.8  337.6

     10   12 25.74  -34 06.0    2.252   1.993    40.7/140    62.2   25.9   12.3   +16.5  338.4

     11   12 27.85  -34 37.2    2.246   1.994    40.7/140    62.5   26.0   12.3   +16.2  339.1

     12   12 29.97  -35 08.4    2.240   1.994    40.6/140    62.9   26.1   12.2   +15.9  339.8

     13   12 32.10  -35 39.6    2.234   1.994    40.5/140    63.2   26.1   12.2   +15.6  340.4

     14   12 34.24  -36 10.7    2.228   1.995    40.5/140    63.5   26.2   12.2   +15.3  341.1

     15   12 36.38  -36 41.8    2.222   1.995    40.4/140    63.9   26.3   12.2   +14.9  341.8

     16   12 38.54  -37 12.8    2.217   1.996    40.3/140    64.2   26.4   12.2   +14.6  342.4

     17   12 40.71  -37 43.8    2.211   1.997    40.2/140    64.5   26.4   12.2   +14.2  343.0

